Location: Newark
(41.6500°N, 71.4833°W)
Time: 19:39:34
(UTC+00:00)

Vanguard 3 - Visible Passes

Search period start: 19 January 2020 00:00
Search period end: 29 January 2020 00:00
Orbit: 508 x 3263 km, 33.3° (Epoch: 19 January)

Date Brightness Start Highest point End Pass type
(mag) Time Alt. Az. Time Alt. Az. Time Alt. Az.
19 Jan 9.5 00:19:54 10° SW 00:37:15 51° SSE 00:40:32 45° SE visible
19 Jan 10.1 02:36:26 10° WSW 02:45:06 35° WSW 02:45:06 35° WSW visible
19 Jan 10.1 23:03:41 10° SW 23:21:23 45° SSE 23:30:46 22° E visible
20 Jan 9.4 01:19:03 10° WSW 01:35:20 58° S 01:35:20 58° S visible
20 Jan 10.8 03:36:18 10° W 03:39:54 19° W 03:39:54 19° W visible
20 Jan 10.6 21:48:34 10° SSW 22:05:20 36° SSE 22:19:00 10° E visible
21 Jan 9.6 00:02:00 10° WSW 00:20:17 55° SSE 00:25:32 40° ESE visible
21 Jan 9.9 02:18:47 10° W 02:30:06 44° WSW 02:30:06 44° WSW visible
21 Jan 10.2 22:45:44 10° SW 23:04:10 49° SSE 23:15:44 17° E visible
22 Jan 9.3 01:01:17 10° WSW 01:19:10 61° S 01:20:18 60° SSE visible
22 Jan 10.5 03:18:46 10° W 03:24:52 25° WSW 03:24:52 25° WSW visible
22 Jan 9.7 23:44:14 10° WSW 00:03:11 59° S 00:10:29 34° ESE visible
23 Jan 9.7 02:01:06 10° W 02:15:03 52° SW 02:15:03 52° SW visible
23 Jan 11.1 04:19:01 10° W 04:19:36 11° W 04:19:36 11° W visible
23 Jan 10.3 22:27:58 10° SW 22:46:51 53° SSE 23:00:40 13° E visible
24 Jan 9.4 00:43:36 10° WSW 01:02:14 63° S 01:05:13 55° SE visible
24 Jan 10.3 03:01:11 10° W 03:09:47 32° WSW 03:09:47 32° WSW visible
24 Jan 9.9 23:26:35 10° WSW 23:46:00 62° S 23:55:24 28° ESE visible
25 Jan 9.6 01:43:27 10° W 01:59:58 58° SSW 01:59:58 58° SSW visible
25 Jan 11.0 04:01:37 10° W 04:04:32 16° W 04:04:32 16° W visible
25 Jan 10.4 22:10:24 10° SW 22:29:26 56° SSE 22:45:15 10° E visible
26 Jan 9.5 00:25:58 10° WSW 00:45:09 64° S 00:50:08 47° SE visible
26 Jan 10.2 02:43:35 10° W 02:54:42 38° WSW 02:54:42 38° WSW visible
26 Jan 10.1 23:09:04 10° WSW 23:28:43 64° S 23:40:19 22° ESE visible
27 Jan 9.5 01:25:49 10° W 01:43:59 58° SSW 01:44:54 57° S visible
27 Jan 10.8 03:44:12 10° W 03:49:28 20° W 03:49:28 20° W visible
27 Jan 10.4 21:53:00 10° WSW 22:11:58 59° SSE 22:28:43 10° E visible
28 Jan 9.8 00:08:27 10° W 00:27:58 64° S 00:35:06 39° ESE visible
28 Jan 10.0 02:25:59 10° W 02:39:40 42° SW 02:39:40 42° SW visible
28 Jan 10.2 22:51:42 10° WSW 23:11:20 65° S 23:25:19 17° ESE visible
